Tioga Municipal Airport, ND

1:17 PM CDT on May 25, 2017 (GMT -0500)
Tioga Municipal Airport

Weather History for KD60 - January, 2014

Change the Weather History Date:

Tuesday, January 7, 2014

  Actual Average (KISN) Record (KISN)
Temperature  
Mean Temperature -9 °F -  
Max Temperature 0 °F 15 °F 48 °F (1963)
Min Temperature -18 °F -5 °F -38 °F (1937)
Degree Days  
Heating Degree Days 74    
Moisture  
Dew Point -8 °F    
Average Humidity 89    
Maximum Humidity 100    
Minimum Humidity 78    
Precipitation  
Precipitation 0.14 in - - ()
Sea Level Pressure  
Sea Level Pressure 30.06 in    
Wind  
Wind Speed 4 mph (NNW)    
Max Wind Speed 10 mph    
Max Gust Speed -    
Visibility 9 miles    
Events Snow    
Averages and records for this station are not official NWS values.
T = Trace of Precipitation, MM = Missing Value Source: NWS Daily Summary

Daily Weather History Graph

Daily Weather History Graph

Search for Another Location

Airport or City:

Trip Planner

Search our weather history database for the weather conditions in past years. The results will help you decide how hot, cold, wet, or windy it might be!

Date:

Astronomy

Jan. 07, 2014 Rise Set
Actual Time 8:41 AM CST 5:14 PM CST
Civil Twilight 8:05 AM CST 5:50 PM CST
Nautical Twilight 7:26 AM CST 6:29 PM CST
Astronomical Twilight 6:48 AM CST 7:07 PM CST
Moon 11:55 AM CST (1/7) 12:22 AM CST (1/7)
Length of Visible Light 9h 44m
Length of Day
8h 32m
Waxing Crescent, 46% of the Moon is Illuminated
Jan 7
Waxing Crescent
Jan 7
First Quarter
Jan 15
Full
Jan 23
Last Quarter
Jan 30
New

Hourly Weather History & Observations

Time (CST) Temp. Windchill Dew Point Humidity Pressure Visibility Wind Dir Wind Speed Gust Speed Precip Events Conditions
12:15 AM -0.4 °F -10.4 °F -4.0 °F 85% 29.92 in 4.0 mi SSE 4.6 mph - 0.01 in Snow Light Snow
12:35 AM -0.4 °F -8.3 °F -4.0 °F 85% 29.92 in 4.0 mi SSE 3.5 mph - 0.03 in Snow Light Snow
12:55 AM -0.4 °F -8.3 °F -4.0 °F 85% 29.92 in 3.0 mi ENE 3.5 mph - 0.06 in Snow Light Snow
1:15 AM -0.4 °F -12.0 °F -2.2 °F 92% 29.91 in 2.5 mi East 5.8 mph - 0.02 in Snow Light Snow
1:35 AM -2.2 °F -14.2 °F -4.0 °F 92% 29.90 in 6.0 mi East 5.8 mph - 0.03 in Snow Light Snow
1:55 AM -0.4 °F -10.4 °F -2.2 °F 92% 29.90 in 9.0 mi East 4.6 mph - 0.04 in Snow Light Snow
2:15 AM -0.4 °F - -2.2 °F 92% 29.91 in 8.0 mi Calm Calm - N/A Snow Light Snow
2:35 AM -0.4 °F - -2.2 °F 92% 29.91 in 10.0 mi Calm Calm - N/A   Overcast
2:55 AM -0.4 °F - -2.2 °F 92% 29.92 in 10.0 mi Calm Calm - N/A   Mostly Cloudy
3:15 AM -0.4 °F -8.3 °F -2.2 °F 92% 29.93 in 3.0 mi NE 3.5 mph - 0.02 in Snow Light Snow
3:35 AM -0.4 °F - -2.2 °F 92% 29.91 in 8.0 mi Calm Calm - 0.04 in Snow Light Snow
3:55 AM -0.4 °F - -2.2 °F 92% 29.93 in 10.0 mi Calm Calm - 0.04 in Snow Light Snow
4:15 AM -0.4 °F - -2.2 °F 92% 29.94 in 10.0 mi Calm Calm - N/A   Overcast
4:35 AM -0.4 °F -8.3 °F -2.2 °F 92% 29.96 in 10.0 mi NE 3.5 mph - N/A   Overcast
4:55 AM -0.4 °F -8.3 °F -2.2 °F 92% 29.96 in 10.0 mi NE 3.5 mph - N/A   Overcast
5:15 AM -0.4 °F -10.4 °F -2.2 °F 92% 29.97 in 10.0 mi NE 4.6 mph - N/A   Overcast
5:35 AM -2.2 °F -10.4 °F -4.0 °F 92% 29.98 in 10.0 mi NE 3.5 mph - N/A   Overcast
5:55 AM -5.8 °F -14.5 °F -7.6 °F 92% 29.98 in 10.0 mi NNE 3.5 mph - N/A   Scattered Clouds
6:15 AM -7.6 °F - -7.6 °F 100% 29.99 in 10.0 mi Calm Calm - N/A   Clear
6:35 AM -9.4 °F - -11.2 °F 92% 29.99 in 10.0 mi Calm Calm - N/A   Clear
6:55 AM -9.4 °F - -11.2 °F 92% 29.99 in 10.0 mi Calm Calm - N/A   Clear
7:15 AM -13.0 °F -25.1 °F -16.6 °F 84% 30.00 in 10.0 mi ENE 4.6 mph - N/A   Clear
7:35 AM -13.0 °F - -16.6 °F 84% 30.00 in 10.0 mi Calm Calm - N/A   Clear
7:55 AM -16.6 °F - -20.2 °F 84% 30.02 in 10.0 mi Calm Calm - N/A   Clear
8:15 AM -14.8 °F -24.8 °F -18.4 °F 84% 30.02 in 10.0 mi SE 3.5 mph - N/A   Clear
8:35 AM -18.4 °F - -20.2 °F 91% 30.04 in 10.0 mi Calm Calm - N/A   Clear
8:55 AM -18.4 °F -28.9 °F -22.0 °F 84% 30.05 in 10.0 mi SW 3.5 mph - N/A   Clear
9:15 AM -18.4 °F -35.1 °F -20.2 °F 91% 30.05 in 10.0 mi WSW 6.9 mph - N/A   Clear
9:35 AM -16.6 °F -29.3 °F -20.2 °F 84% 30.06 in 10.0 mi West 4.6 mph - N/A   Clear
9:55 AM -16.6 °F -26.8 °F -18.4 °F 92% 30.07 in 10.0 mi North 3.5 mph - N/A   Clear
10:15 AM -14.8 °F - -18.4 °F 84% 30.08 in 10.0 mi Calm Calm - N/A   Partly Cloudy
10:35 AM -11.2 °F - -13.0 °F 92% 30.09 in 10.0 mi Calm Calm - N/A   Mostly Cloudy
10:55 AM -7.6 °F -18.8 °F -9.4 °F 92% 30.09 in 10.0 mi WNW 4.6 mph - N/A   Overcast
11:15 AM -4.0 °F -12.4 °F -5.8 °F 92% 30.10 in 5.0 mi WNW 3.5 mph - N/A   Overcast
11:35 AM -2.2 °F -14.2 °F -4.0 °F 92% 30.10 in 10.0 mi WNW 5.8 mph - N/A   Overcast
11:55 AM -2.2 °F -14.2 °F -2.2 °F 100% 30.10 in 10.0 mi NNW 5.8 mph - N/A   Overcast
12:15 PM -2.2 °F -12.5 °F -2.2 °F 100% 30.09 in 10.0 mi North 4.6 mph - N/A   Overcast
12:35 PM -2.2 °F -18.0 °F -2.2 °F 100% 30.09 in 10.0 mi North 9.2 mph - N/A   Overcast
12:55 PM -0.4 °F -13.4 °F -2.2 °F 92% 30.09 in 10.0 mi NW 6.9 mph - N/A   Overcast
1:15 PM -0.4 °F -13.4 °F -2.2 °F 92% 30.08 in 10.0 mi NW 6.9 mph - N/A   Overcast
1:35 PM -2.2 °F -15.6 °F -2.2 °F 100% 30.07 in 10.0 mi NNW 6.9 mph - N/A   Overcast
1:55 PM -0.4 °F -12.0 °F -2.2 °F 92% 30.07 in 10.0 mi NNW 5.8 mph - N/A   Overcast
2:15 PM -0.4 °F -12.0 °F -2.2 °F 92% 30.07 in 10.0 mi NNW 5.8 mph - N/A   Overcast
2:35 PM -0.4 °F -12.0 °F -2.2 °F 92% 30.08 in 10.0 mi NW 5.8 mph - N/A   Overcast
2:55 PM -0.4 °F -13.4 °F -2.2 °F 92% 30.09 in 10.0 mi WNW 6.9 mph - N/A Snow Light Snow
3:15 PM -0.4 °F -16.7 °F -4.0 °F 85% 30.09 in 10.0 mi NW 10.4 mph - N/A   Overcast
3:35 PM -0.4 °F -15.7 °F -4.0 °F 85% 30.10 in 10.0 mi NNW 9.2 mph - N/A   Overcast
3:55 PM -0.4 °F -14.7 °F -4.0 °F 85% 30.11 in 10.0 mi NNW 8.1 mph - N/A   Overcast
4:15 PM -0.4 °F -15.7 °F -4.0 °F 85% 30.12 in 10.0 mi NW 9.2 mph - N/A   Overcast
4:35 PM -0.4 °F -13.4 °F -4.0 °F 85% 30.12 in 10.0 mi NNW 6.9 mph - N/A   Overcast
4:55 PM -0.4 °F -12.0 °F -4.0 °F 85% 30.12 in 10.0 mi WNW 5.8 mph - N/A   Overcast
5:15 PM -0.4 °F -13.4 °F -4.0 °F 85% 30.13 in 10.0 mi NW 6.9 mph - N/A   Overcast
5:35 PM -0.4 °F -14.7 °F -4.0 °F 85% 30.13 in 10.0 mi NW 8.1 mph - N/A   Overcast
5:55 PM -0.4 °F -16.7 °F -4.0 °F 85% 30.14 in 10.0 mi WNW 10.4 mph - N/A   Overcast
6:15 PM -0.4 °F -16.7 °F -4.0 °F 85% 30.14 in 10.0 mi NW 10.4 mph - N/A   Overcast
6:35 PM -0.4 °F -16.7 °F -4.0 °F 85% 30.15 in 10.0 mi NW 10.4 mph - N/A   Overcast
6:55 PM -0.4 °F -15.7 °F -4.0 °F 85% 30.16 in 10.0 mi NNW 9.2 mph - N/A   Overcast
7:15 PM -0.4 °F -14.7 °F -4.0 °F 85% 30.16 in 10.0 mi NNW 8.1 mph - N/A   Overcast
7:35 PM -2.2 °F -18.9 °F -5.8 °F 85% 30.16 in 10.0 mi NNW 10.4 mph - N/A   Overcast
7:55 PM -2.2 °F -15.6 °F -5.8 °F 85% 30.16 in 10.0 mi NNW 6.9 mph - N/A   Overcast
8:15 PM -2.2 °F -16.8 °F -7.6 °F 78% 30.17 in 10.0 mi NNW 8.1 mph - N/A   Overcast
8:35 PM -4.0 °F -12.4 °F -7.6 °F 85% 30.17 in 10.0 mi NW 3.5 mph - N/A   Overcast
8:55 PM -4.0 °F -16.3 °F -7.6 °F 85% 30.18 in 10.0 mi NW 5.8 mph - N/A   Overcast
9:15 PM -4.0 °F -20.2 °F -7.6 °F 85% 30.18 in 10.0 mi NNW 9.2 mph - N/A   Overcast
9:35 PM -9.4 °F -25.6 °F -11.2 °F 92% 30.19 in 10.0 mi North 8.1 mph - N/A   Mostly Cloudy
9:55 PM -9.4 °F -24.3 °F - N/A% 30.19 in 10.0 mi North 6.9 mph - N/A   Partly Cloudy
10:15 PM -11.2 °F -27.8 °F -13.0 °F 92% 30.19 in 10.0 mi North 8.1 mph - N/A   Clear
10:35 PM -13.0 °F -22.7 °F -16.6 °F 84% 30.19 in 10.0 mi NW 3.5 mph - N/A   Clear
10:55 PM -13.0 °F -25.1 °F -16.6 °F 84% 30.19 in 10.0 mi NNW 4.6 mph - N/A   Clear
11:15 PM -14.8 °F -24.8 °F -18.4 °F 84% 30.19 in 10.0 mi North 3.5 mph - N/A   Clear
11:35 PM -16.6 °F - -18.4 °F 92% 30.19 in 10.0 mi Calm Calm - N/A   Clear
11:55 PM -13.0 °F -22.7 °F -16.6 °F 84% 30.20 in 10.0 mi North 3.5 mph - N/A   Clear